Location: 5810 Zion Rd, Cleves, OH 45002, USA
(39.1922°N, 84.7113°W)
Time: 04:10:16
(UTC-05:00)

Vanguard 3 - Pass Details

Date: 16 December 2019
Orbit: 507 x 3263 km, 33.4° (Epoch: 21 January)

Event Time Altitude Azimuth Distance (km) Brightness Sun altitude
Rises 06:36:37 0° 231° (SW) 2,943 - -14.1°
Exits shadow 06:36:53 - 230° (SW) 2,843 9.7 -14.0°
Reaches altitude 10° 06:38:42 10° 221° (SW) 2,217 9.2 -13.7°
Maximum altitude 06:43:23 36° 154° (SSE) 1,487 8.9 -12.8°
Drops below altitude 10° 06:50:53 10° 92° (E) 3,589 11.7 -11.5°
Sets 06:55:11 0° 86° (E) 5,071 12.5 -10.7°
